Temp
17 17 18 18 18 18 18 18 18 19 19 19 20 20 21 21 21 21 21 20 21 21 22 21 21 21 20 20 20 20 13 13 15 14 12 12 11 10 10 10 9 9 9 8 8
17 17 17 17 18 18 18 18 18 19 19 19 20 20 21 21 21 21 20 21 21 21 22 21 21 21 20 19 19 15 11 14 13 12 11 12 11 10 10 9 9 9 8 8 8
17 17 17 17 18 18 18 18 19 19 20 20 20 20 21 21 21 21 21 21 21 21 22 22 21 21 19 18 16 14 12 13 12 13 13 10 10 10 9 7 8 9 8 8 8
17 17 17 17 18 18 18 18 19 19 20 20 20 20 21 21 20 20 21 21 21 21 21 21 21 20 14 13 15 12 13 13 12 12 12 10 9 8 9 9 9 9 8 8 7
17 17 17 17 18 18 18 19 19 19 20 20 20 21 21 21 20 20 21 21 21 21 21 21 21 19 14 14 14 11 12 12 12 12 11 11 9 8 9 9 9 8 8 8 7
17 17 17 17 18 18 18 19 19 20 20 20 20 20 21 20 20 20 21 21 21 21 21 21 21 19 15 13 12 12 12 11 11 11 10 9 8 9 9 9 9 8 8 7 7
17 17 17 18 18 18 18 19 19 20 20 20 20 21 20 20 20 20 20 20 20 20 21 20 20 19 16 12 13 12 10 11 11 11 10 10 8 8 9 9 8 8 8 7 6
17 17 17 18 18 18 19 19 20 20 20 20 20 20 20 20 20 19 20 20 19 20 20 19 19 18 15 14 13 11 10 10 10 10 10 10 9 8 9 9 8 8 7 7 6
17 17 17 17 18 19 19 19 20 20 20 20 20 20 20 19 19 19 19 20 20 19 19 19 19 15 15 11 11 11 12 11 11 10 9 9 8 8 9 9 8 8 7 7 6
16 17 17 18 18 19 19 20 20 20 20 20 20 20 19 19 19 19 19 19 19 19 19 19 17 11 10 10 13 13 13 12 11 9 9 8 8 7 9 9 8 7 7 6 6
16 17 17 18 18 19 19 20 20 20 20 20 20 20 19 19 19 19 19 19 19 19 16 17 13 14 14 13 14 14 14 14 12 11 10 8 8 6 8 8 7 7 6 6 5
16 17 17 18 18 19 19 19 19 19 19 19 19 19 19 19 19 19 19 19 19 17 17 14 14 14 15 15 15 15 15 12 12 12 10 10 9 6 7 7 8 7 6 5 5
15 16 17 18 18 18 19 18 18 19 18 19 19 19 19 19 18 18 19 19 17 16 14 15 15 15 15 13 14 12 14 12 12 11 10 10 7 6 7 8 6 6 5 5 4
15 16 17 18 18 18 18 18 19 19 14 17 18 19 18 19 18 18 18 18 17 15 14 14 15 15 15 13 13 14 12 12 12 10 10 10 9 6 6 6 5 5 5 5 4
15 15 16 17 17 18 17 18 19 19 16 18 18 18 18 18 17 17 18 18 16 15 15 15 14 14 14 13 13 13 12 12 12 10 9 9 7 7 5 5 4 5 5 4 4
14 15 16 16 17 18 18 18 19 15 16 17 17 17 17 18 17 17 17 18 17 15 12 13 13 13 13 13 13 12 12 10 8 7 9 10 9 7 4 6 4 5 5 4 4
14 15 15 16 17 17 18 18 15 15 19 17 16 16 17 16 16 16 16 15 14 15 14 13 13 12 13 13 12 11 9 10 13 10 12 10 9 7 6 5 5 5 5 4 4
14 15 16 16 17 17 17 15 16 18 17 17 17 16 16 16 16 16 15 14 14 14 11 13 15 12 12 12 13 12 10 10 16 12 10 8 9 9 5 7 7 6 5 4 3
14 15 16 16 16 16 17 14 15 16 19 17 18 17 17 17 16 16 14 13 13 14 14 13 15 11 11 11 11 12 10 9 8 8 8 8 8 7 6 5 5 4 4 4 3
14 15 15 15 15 16 13 13 15 18 18 18 17 16 15 16 16 15 14 14 13 13 13 14 14 11 11 11 11 11 9 11 7 11 13 9 8 8 4 4 3 3 4 4 3
13 14 15 15 15 15 11 12 16 18 19 18 18 17 17 15 14 14 15 13 13 12 12 13 13 12 11 10 10 9 9 7 7 6 7 8 10 5 5 4 3 4 5 4 4
12 11 14 14 13 11 11 14 18 17 17 17 17 18 18 15 15 15 14 13 12 13 13 12 10 10 11 9 10 10 11 8 5 8 3 2 7 8 5 5 6 5 5 4 3
12 13 13 13 10 9 12 16 17 16 16 17 17 17 17 17 18 15 12 10 11 12 11 11 10 11 13 10 9 9 9 7 4 2 4 4 9 4 4 4 6 5 4 4 3
11 9 12 13 12 12 13 15 15 16 17 17 16 16 16 16 14 14 11 10 10 10 11 11 9 11 11 14 9 9 8 7 6 2 3 5 9 5 3 3 4 4 4 4 3
10 9 11 8 10 11 13 13 14 14 15 16 15 15 15 15 15 14 10 9 9 10 10 9 10 9 10 10 10 10 9 6 5 7 8 10 6 8 4 3 5 6 4 4 3
10 10 10 10 11 11 9 12 14 15 14 14 15 14 13 13 14 13 10 9 11 7 8 6 11 11 12 11 10 10 8 7 6 7 5 6 7 6 5 5 5 5 4 4 3
9 9 10 9 9 9 9 12 14 16 15 15 14 13 13 12 15 14 14 13 11 7 6 7 7 7 12 10 10 10 8 7 6 6 7 8 8 4 3 4 5 5 4 4 4
Height
1545 1544 1544 1544 1544 1543 1543 1543 1543 1543 1543 1542 1542 1541 1541 1540 1539 1539 1538 1537 1535 1534 1534 1534 1534 1534 1534 1534 1534 1534 1546 1556 1553 1557 1560 1563 1565 1570 1573 1570 1573 1575 1577 1578 1578
1546 1545 1544 1544 1544 1544 1543 1543 1543 1543 1543 1542 1541 1540 1539 1539 1539 1538 1538 1535 1534 1533 1533 1534 1533 1534 1535 1535 1535 1535 1552 1554 1553 1553 1559 1562 1564 1569 1573 1573 1575 1576 1577 1577 1576
1546 1545 1544 1544 1544 1544 1544 1543 1543 1542 1542 1542 1540 1539 1539 1538 1539 1538 1536 1534 1533 1532 1533 1533 1533 1533 1534 1537 1540 1543 1553 1553 1556 1554 1557 1562 1566 1569 1571 1575 1574 1575 1576 1576 1575
1546 1545 1544 1544 1543 1543 1544 1543 1542 1542 1541 1541 1540 1538 1538 1538 1542 1537 1535 1534 1532 1532 1533 1533 1533 1533 1538 1542 1543 1550 1554 1553 1558 1559 1561 1564 1567 1570 1571 1573 1573 1575 1575 1575 1573
1545 1544 1544 1544 1543 1543 1543 1543 1541 1541 1541 1540 1539 1538 1538 1538 1538 1537 1535 1534 1533 1532 1532 1532 1532 1534 1540 1543 1545 1551 1556 1557 1559 1560 1562 1564 1567 1569 1572 1572 1573 1574 1575 1574 1572
1545 1544 1543 1543 1543 1543 1542 1542 1541 1540 1540 1539 1538 1538 1538 1538 1537 1537 1535 1534 1533 1532 1530 1531 1531 1533 1538 1545 1547 1552 1556 1559 1561 1562 1564 1566 1570 1570 1572 1572 1573 1573 1573 1572 1572
1545 1544 1543 1542 1542 1542 1541 1540 1540 1539 1539 1539 1538 1538 1537 1538 1537 1537 1536 1535 1533 1532 1531 1532 1533 1534 1539 1547 1552 1555 1560 1561 1562 1563 1565 1567 1573 1570 1570 1571 1572 1572 1572 1572 1571
1544 1543 1542 1541 1541 1541 1540 1539 1539 1539 1538 1538 1538 1538 1537 1537 1537 1537 1537 1536 1535 1534 1533 1534 1534 1535 1540 1549 1554 1558 1561 1565 1560 1562 1565 1567 1570 1568 1569 1570 1570 1570 1571 1570 1570
1542 1542 1541 1540 1539 1539 1539 1538 1538 1538 1538 1537 1538 1537 1538 1537 1537 1536 1536 1537 1536 1536 1536 1535 1536 1541 1547 1551 1560 1559 1562 1563 1561 1561 1563 1566 1567 1565 1567 1569 1569 1570 1570 1570 1569
1541 1540 1540 1539 1537 1538 1537 1537 1537 1537 1537 1537 1537 1539 1538 1537 1536 1535 1535 1536 1536 1536 1537 1537 1538 1545 1551 1556 1562 1556 1557 1557 1559 1560 1561 1564 1564 1564 1566 1567 1568 1568 1568 1569 1568
1540 1538 1537 1538 1536 1536 1537 1536 1539 1538 1536 1535 1535 1534 1534 1536 1536 1535 1535 1536 1536 1536 1538 1538 1546 1551 1549 1549 1548 1548 1551 1552 1553 1554 1558 1561 1561 1562 1563 1566 1567 1567 1568 1568 1568
1539 1537 1536 1535 1536 1535 1535 1536 1537 1539 1535 1534 1533 1534 1534 1535 1535 1535 1535 1537 1536 1538 1537 1543 1548 1546 1545 1546 1546 1546 1548 1554 1554 1553 1557 1555 1556 1560 1562 1564 1564 1567 1567 1567 1567
1537 1536 1535 1534 1534 1534 1534 1535 1536 1536 1536 1533 1532 1533 1533 1535 1534 1534 1535 1535 1536 1539 1542 1545 1546 1544 1545 1550 1549 1553 1550 1554 1557 1555 1555 1555 1561 1563 1563 1563 1565 1566 1565 1566 1564
1535 1535 1534 1533 1537 1534 1534 1534 1534 1535 1544 1535 1532 1532 1533 1532 1534 1534 1534 1537 1536 1542 1543 1546 1545 1545 1545 1550 1551 1552 1552 1552 1553 1560 1563 1557 1565 1565 1563 1563 1565 1564 1564 1563 1562
1534 1533 1533 1533 1533 1534 1535 1533 1534 1536 1562 1533 1532 1532 1532 1533 1535 1535 1535 1535 1537 1540 1543 1548 1547 1547 1548 1549 1550 1552 1551 1552 1552 1557 1561 1561 1571 1557 1562 1564 1563 1562 1562 1562 1561
1532 1532 1531 1532 1532 1534 1533 1533 1534 1547 1556 1533 1529 1531 1533 1532 1533 1534 1535 1536 1538 1540 1544 1549 1548 1548 1548 1548 1549 1550 1552 1556 1560 1565 1569 1557 1561 1560 1564 1556 1559 1560 1560 1560 1560
1530 1529 1529 1530 1532 1532 1533 1534 1545 1554 1527 1533 1531 1531 1532 1534 1534 1534 1536 1538 1544 1548 1549 1550 1549 1549 1548 1549 1550 1551 1558 1566 1558 1566 1559 1556 1562 1551 1551 1552 1553 1556 1558 1558 1558
1527 1527 1527 1528 1529 1531 1533 1535 1545 1528 1529 1523 1525 1529 1535 1532 1534 1534 1538 1543 1539 1542 1554 1554 1552 1551 1550 1550 1550 1551 1557 1569 1551 1567 1568 1560 1560 1548 1550 1550 1552 1554 1555 1556 1554
1525 1525 1524 1525 1527 1529 1533 1545 1535 1526 1520 1524 1525 1531 1534 1531 1533 1534 1539 1541 1539 1539 1548 1554 1548 1551 1551 1551 1552 1551 1559 1559 1569 1573 1577 1563 1552 1549 1550 1550 1551 1552 1553 1552 1551
1522 1522 1523 1524 1525 1528 1531 1539 1527 1517 1516 1519 1528 1527 1537 1535 1534 1537 1538 1535 1537 1539 1540 1541 1549 1551 1552 1552 1552 1553 1556 1560 1572 1570 1560 1561 1556 1547 1552 1548 1549 1550 1550 1549 1550
1521 1519 1520 1522 1524 1527 1535 1532 1523 1519 1517 1518 1522 1526 1526 1531 1534 1536 1532 1536 1535 1538 1539 1540 1546 1554 1553 1554 1553 1558 1559 1564 1568 1577 1584 1576 1547 1536 1537 1539 1543 1544 1545 1546 1548
1519 1521 1518 1521 1526 1525 1528 1522 1519 1518 1518 1516 1517 1518 1521 1526 1531 1533 1532 1531 1534 1534 1539 1540 1549 1557 1551 1551 1551 1551 1550 1557 1578 1570 1589 1596 1556 1530 1531 1534 1537 1540 1541 1543 1546
1517 1518 1517 1519 1527 1527 1521 1518 1517 1517 1518 1518 1516 1516 1518 1521 1526 1529 1532 1534 1533 1535 1538 1539 1549 1557 1548 1554 1553 1552 1549 1555 1565 1575 1577 1586 1544 1533 1533 1535 1535 1536 1538 1541 1541
1516 1517 1517 1516 1518 1519 1520 1517 1518 1515 1515 1517 1516 1515 1517 1521 1524 1528 1535 1536 1534 1534 1536 1537 1546 1545 1553 1537 1544 1548 1548 1552 1555 1582 1572 1558 1532 1534 1533 1532 1532 1533 1535 1537 1539
1514 1511 1512 1516 1514 1515 1517 1516 1515 1516 1514 1514 1516 1515 1516 1525 1525 1526 1533 1537 1536 1535 1536 1538 1543 1543 1537 1537 1538 1537 1540 1549 1553 1545 1546 1528 1534 1520 1522 1523 1523 1527 1531 1534 1535
1511 1510 1509 1510 1509 1511 1515 1515 1514 1512 1513 1514 1514 1512 1515 1519 1518 1524 1527 1533 1530 1537 1537 1538 1539 1537 1535 1533 1535 1535 1534 1539 1542 1539 1540 1534 1526 1512 1514 1516 1519 1522 1526 1529 1531
1507 1508 1509 1508 1507 1510 1512 1510 1509 1510 1509 1509 1508 1511 1514 1512 1513 1514 1516 1517 1522 1530 1536 1539 1541 1548 1538 1535 1535 1534 1520 1525 1527 1525 1523 1527 1510 1510 1514 1514 1514 1518 1521 1523 1526
Wind_Speed
6 4 3 2 3 3 3 3 2 1 0 1 2 4 5 4 2 1 6 9 9 5 0 3 2 2 0 4 4 1 4 2 1 6 5 11 5 8 12 16 10 8 10 5 4
6 4 2 2 3 2 2 2 1 1 1 1 2 5 5 3 5 1 10 10 6 1 2 3 6 4 2 6 6 7 4 1 4 6 6 9 6 12 5 8 7 8 6 2 7
7 4 2 2 2 1 1 2 2 1 1 2 4 4 3 2 3 3 9 8 5 1 4 4 4 1 5 6 7 4 4 4 8 18 18 10 10 5 15 3 3 5 3 2 8
6 4 2 0 2 1 2 2 2 1 1 2 5 3 1 0 2 6 8 5 3 2 5 2 0 4 5 4 4 6 8 7 10 15 11 6 8 7 2 7 9 5 1 3 9
6 4 3 1 1 1 2 3 2 1 1 3 6 1 1 1 1 6 6 1 3 1 5 3 5 7 6 8 11 7 6 12 15 15 14 13 8 8 8 9 4 1 4 5 9
6 4 2 3 3 2 2 4 2 1 2 2 2 3 1 1 2 3 6 3 3 3 2 4 7 11 11 5 5 8 18 14 10 10 12 9 6 1 7 5 1 6 5 5 8
7 5 4 3 4 4 4 4 4 2 3 2 2 1 0 2 0 1 4 8 9 6 8 10 9 3 9 7 11 17 5 5 5 9 4 17 2 2 10 6 5 7 5 5 7
8 6 5 3 5 6 5 4 5 4 3 2 1 0 1 0 2 2 2 8 9 9 10 11 11 15 6 18 6 4 4 1 4 10 9 3 4 7 9 7 6 5 5 4 6
8 8 6 5 5 5 6 5 4 4 4 2 1 1 1 2 2 2 4 2 6 8 8 9 10 11 7 5 3 1 2 4 1 14 6 4 5 10 12 9 7 5 3 3 6
8 7 7 6 5 6 6 4 4 3 4 4 4 1 4 2 1 2 5 5 1 2 2 1 5 4 4 4 2 3 2 2 4 6 6 5 5 6 14 10 8 5 4 3 5
9 7 7 7 5 5 3 2 1 1 4 3 3 2 6 5 2 3 4 4 3 2 2 2 5 1 4 4 4 2 2 2 1 5 5 7 4 9 16 11 9 5 4 3 4
9 9 7 6 6 4 2 2 3 2 4 6 5 5 6 5 2 1 1 2 2 1 2 5 1 3 2 0 1 2 1 1 1 2 4 3 5 5 11 10 12 7 5 2 3
9 9 8 5 4 2 2 2 4 5 2 3 5 4 4 7 2 1 2 2 3 3 3 5 1 2 1 4 4 2 1 1 3 0 3 4 3 3 5 4 7 8 4 2 3
9 9 7 3 2 3 3 1 4 1 4 3 4 3 5 5 2 2 3 2 3 4 3 4 0 1 1 2 1 2 2 1 1 2 2 2 4 4 4 5 4 5 3 1 3
9 8 7 3 2 3 2 2 2 1 2 3 3 5 5 3 5 3 2 1 3 2 4 1 1 2 2 1 1 2 1 1 1 1 3 0 2 3 5 6 6 5 3 1 4
8 8 6 5 6 6 2 1 4 5 5 3 4 3 3 3 3 3 2 3 4 4 5 2 1 2 1 1 1 1 2 4 4 3 2 2 3 3 5 6 4 5 5 2 2
9 8 8 7 4 6 3 3 4 3 1 4 4 4 3 4 3 3 2 2 3 3 1 2 0 1 1 1 1 3 4 3 4 4 4 2 1 7 4 3 7 9 7 4 2
9 9 8 7 8 4 5 3 3 3 5 2 4 4 4 5 1 3 4 0 1 3 3 3 4 0 2 1 1 1 4 4 3 2 5 4 5 4 4 6 5 6 8 5 3
9 8 7 5 8 8 5 1 6 5 4 6 3 3 2 3 4 2 6 4 5 4 5 4 2 1 2 1 1 2 2 2 5 2 2 4 5 2 3 4 7 10 10 6 3
7 6 7 5 7 10 4 5 4 3 5 3 5 4 6 4 3 4 7 3 4 2 2 3 0 2 1 1 2 1 4 2 3 0 4 5 5 5 7 10 7 10 12 8 4
4 2 3 9 9 7 4 6 4 4 2 4 4 4 4 6 6 4 4 0 3 4 1 2 2 1 2 4 5 1 0 4 4 4 4 2 6 6 9 10 10 15 14 10 6
3 0 4 11 4 1 3 5 3 3 3 1 2 1 4 6 5 5 8 1 2 7 5 1 4 3 5 1 1 1 2 4 4 4 1 4 6 2 6 15 17 14 14 11 6
3 3 4 14 3 2 4 4 3 3 3 3 4 2 0 4 2 2 3 1 3 3 5 5 1 2 2 1 3 4 4 4 5 3 6 5 6 1 5 10 14 15 15 12 9
4 0 4 10 4 4 3 4 5 5 4 4 2 3 3 2 3 4 3 1 2 3 4 4 3 6 6 4 5 4 5 5 5 3 4 7 6 6 8 9 16 17 17 14 11
6 4 4 2 4 5 1 3 4 5 4 7 1 5 6 5 2 4 3 0 0 3 3 4 4 4 5 6 5 6 5 9 9 5 7 3 7 5 10 13 25 23 19 16 14
6 3 4 3 3 6 5 5 3 2 6 5 5 6 6 7 8 8 7 5 6 1 6 1 2 0 4 2 5 6 8 10 7 4 10 8 16 5 5 11 20 25 23 20 17
10 6 2 2 3 5 4 6 7 1 5 4 10 5 4 8 5 5 9 7 10 8 7 6 5 3 4 3 4 9 9 13 7 6 7 7 10 8 4 13 24 26 26 23 19
Wind_Direction
27 36 55 84 101 110 102 87 74 69 43 214 288 324 334 324 284 192 352 349 344 329 330 154 92 142 212 21 20 287 66 78 93 149 150 144 124 78 93 95 89 100 101 91 351
22 29 56 103 121 118 92 61 13 20 341 289 302 316 320 318 154 36 354 349 351 328 171 147 25 177 87 13 25 59 81 86 295 121 138 126 117 128 106 87 84 107 102 39 338
12 18 38 115 138 142 343 2 356 352 321 321 323 328 338 114 158 338 359 347 354 53 161 166 101 124 72 43 20 46 107 90 47 122 127 109 90 115 126 60 135 127 117 12 358
11 6 6 150 157 153 313 331 341 307 339 326 332 322 73 64 180 349 4 11 320 164 174 182 38 104 69 43 53 91 52 111 113 117 112 97 115 93 104 134 109 103 157 17 2
0 2 340 282 218 244 307 309 321 271 264 325 339 298 170 146 24 0 8 335 337 270 196 237 175 128 120 118 70 88 104 94 116 108 101 119 101 123 127 133 131 302 146 25 4
348 342 329 294 257 285 297 305 299 242 245 322 360 35 112 140 350 9 21 3 11 24 211 204 163 129 102 70 71 114 114 116 112 112 126 113 133 16 177 159 218 153 80 36 8
343 330 313 289 270 281 293 304 286 229 238 285 305 286 295 128 172 73 43 54 52 58 95 87 122 167 112 99 109 117 85 81 142 145 119 118 54 192 154 161 141 122 89 48 11
337 324 307 287 277 277 288 295 282 237 230 262 270 218 187 262 62 190 114 79 69 73 80 81 109 101 87 117 90 74 79 90 200 171 172 128 248 219 181 181 142 129 94 30 17
335 322 304 291 284 280 282 290 264 214 214 189 169 214 206 177 339 219 209 135 97 77 90 87 102 94 110 89 55 245 230 210 270 197 150 177 244 215 189 184 163 135 106 66 24
333 324 308 290 287 286 277 286 272 221 235 234 238 194 198 197 56 81 193 202 174 134 153 91 77 79 42 72 242 218 252 189 220 202 176 184 245 200 195 198 186 152 135 90 14
324 325 309 294 282 288 281 312 308 146 220 234 200 182 155 162 132 32 148 170 161 175 134 74 69 142 192 197 202 199 219 266 242 171 159 211 212 204 197 202 196 173 147 89 31
321 321 313 295 278 282 298 89 3 308 310 247 228 206 174 194 190 47 135 156 167 247 116 28 123 208 231 74 318 231 304 8 338 135 178 249 261 173 193 210 214 177 153 82 22
320 319 313 292 263 245 185 238 308 303 259 250 197 203 187 188 180 247 191 171 115 60 4 141 165 174 113 46 39 37 152 181 226 313 265 336 350 140 221 219 150 136 136 77 3
316 320 312 285 220 178 165 208 305 247 58 257 204 193 163 169 86 62 118 153 50 154 126 93 284 321 208 101 107 296 159 252 264 86 266 112 289 230 206 206 151 162 151 55 4
310 314 310 269 199 199 179 6 162 190 330 167 149 163 172 154 141 45 109 70 118 105 100 243 10 35 86 129 164 234 215 153 270 158 25 311 76 258 142 226 209 202 189 243 4
304 304 301 266 215 225 275 112 149 48 257 177 138 171 131 160 133 126 82 84 109 87 42 97 50 65 155 329 142 116 87 46 49 79 6 250 142 242 188 211 165 207 204 233 333
301 293 286 254 231 225 243 182 60 158 47 193 182 160 187 166 158 144 131 81 153 99 232 352 288 321 41 84 46 77 62 342 352 6 229 193 57 255 205 186 168 194 195 204 318
302 287 277 255 226 204 199 41 167 219 205 169 140 111 182 159 210 140 125 251 239 105 120 176 309 146 8 81 197 40 125 144 272 289 288 316 246 275 196 186 179 187 183 192 263
304 289 275 236 215 198 171 160 211 203 170 144 70 140 219 225 144 137 181 205 195 177 172 156 257 319 52 53 108 108 54 180 102 14 18 259 280 297 155 224 194 183 189 213 246
302 293 262 189 180 185 108 238 255 240 133 122 180 154 177 219 167 180 182 188 176 177 139 203 54 231 137 65 22 74 164 47 18 108 293 287 282 243 218 225 212 194 209 218 237
293 277 210 182 173 180 175 219 263 283 228 158 205 172 194 176 180 208 196 127 169 154 117 126 115 272 45 201 185 66 98 57 116 132 167 295 272 209 203 194 196 206 214 217 225
203 17 175 176 165 154 181 202 224 222 284 141 139 169 172 153 173 231 202 107 156 158 160 144 140 200 223 316 332 246 206 144 119 231 99 150 274 273 196 181 190 197 206 211 218
198 238 205 183 166 247 267 254 251 163 243 208 191 161 231 155 173 122 176 141 149 140 158 170 200 355 299 356 350 238 203 120 111 87 199 140 263 114 152 177 194 192 198 203 208
191 119 189 188 200 166 210 237 223 220 212 209 179 127 119 155 31 173 182 232 161 127 136 138 161 181 202 206 135 196 192 169 136 125 184 228 283 211 217 212 204 203 200 202 209
202 231 197 204 240 200 155 300 191 221 214 202 280 212 161 168 162 185 121 50 316 169 136 135 209 188 249 235 197 204 185 180 195 189 181 248 225 228 206 207 213 204 198 200 207
198 208 195 198 185 158 172 229 226 224 164 233 202 207 186 165 188 201 144 190 204 150 163 146 248 335 285 41 216 265 224 201 213 240 268 275 284 204 220 208 192 197 197 204 207
208 238 271 235 166 118 210 205 218 233 226 248 224 140 173 226 207 232 191 157 156 153 174 153 146 103 265 342 316 291 222 183 186 206 163 198 227 158 171 181 189 196 201 208 208